Home   Weather   Hamilton   Past weeks
Flag for Bermuda

Past Weather in Hamilton, Bermuda — Yesterday and Last 2 Weeks

Now
77 °F

Passing clouds.


Feels Like: 79 °F
Forecast: N/A
Wind: 10 mph from Northwest

Location: Bermuda

Current Time: May 19, 2019 at 5:37:12 pm

Latest Report: May 19, 2019 at 3:55 pm


Visibility: N/A

Pressure: 30.15 "Hg

Humidity: 74%

Dew Point: 68 °F

Location of HamiltonLocation

Past Weather in Hamilton — Graph

°F

Hamilton Temperature Yesterday

Maximum temperature yesterday: 75 °F (at 1:55 pm)
Minimum temperature yesterday: 68 °F (at 12:55 am)
Average temperature yesterday: 72 °F

High & Low Weather Summary for the Past Weeks

 TemperatureHumidityPressure
High79 °F (May 5, 10:55 am)100% (May 14, 2:31 pm)30.24 "Hg (May 14, 2:31 pm)
Low63 °F (May 11, 4:55 am)49% (May 10, 6:55 pm)29.77 "Hg (May 14, 5:55 pm)
Average72 °F74%30.03 "Hg
* Reported May 4 3:55 pm — May 19 3:55 pm, Hamilton. Weather by CustomWeather, © 2019

Note: Actual official high and low records may vary slightly from our data, if they occured in-between our weather recording intervals... More about our weather records

Advertising

Hamilton Weather History for the Previous 24 Hours

Scroll right to see more
 ConditionsComfort  
Time TempWeatherWind HumidityBarometerVisibility
3:55 pm
Sun, May 19
77 °FPassing clouds.10 mph74%30.15 "HgN/A
2:55 pm75 °FPassing clouds.12 mph74%30.18 "HgN/A
1:55 pm77 °FPassing clouds.12 mph74%30.18 "HgN/A
12:55 pm75 °FPassing clouds.12 mph78%30.18 "HgN/A
11:55 am75 °FPassing clouds.9 mph78%30.18 "HgN/A
10:55 am75 °FPassing clouds.10 mph74%30.18 "HgN/A
9:55 am73 °FPassing clouds.10 mph78%30.18 "HgN/A
8:55 am73 °FPassing clouds.10 mph78%30.15 "HgN/A
7:55 am72 °FBroken clouds.10 mph83%30.15 "HgN/A
6:55 am72 °FPassing clouds.10 mph78%30.15 "HgN/A
5:55 am72 °FPassing clouds.12 mph78%30.12 "HgN/A
4:55 am72 °FPassing clouds.10 mph78%30.12 "HgN/A
3:55 am72 °FPassing clouds.12 mph78%30.12 "HgN/A
2:55 am72 °FPassing clouds.12 mph78%30.12 "HgN/A
1:55 am72 °FPassing clouds.10 mph78%30.12 "HgN/A
12:55 am72 °FPassing clouds.10 mph78%30.15 "HgN/A
11:55 pm
Sat, May 18
72 °FPassing clouds.10 mph78%30.15 "HgN/A
10:55 pm72 °FPassing clouds.9 mph78%30.15 "HgN/A
9:55 pm72 °FPassing clouds.9 mph78%30.12 "HgN/A
8:55 pm72 °FPassing clouds.9 mph78%30.12 "HgN/A
7:55 pm73 °FPartly sunny.10 mph74%30.12 "HgN/A
6:55 pm73 °FPartly sunny.9 mph69%30.09 "HgN/A
5:55 pm73 °FPartly sunny.10 mph74%30.09 "HgN/A
Weather by CustomWeather, © 2019

See weather overview